�N����,����,�g�[���i���ԁj���x,�g�[�����x,��g�[���i���ցj���x,����
 2003/08/01, 0:00,28.3,49,26.9,19.6
 2003/08/01, 0:15,28.3,49,27,19.7
 2003/08/01, 0:30,28.3,50,26.9,19.7
 2003/08/01, 0:45,28.1,50,26.9,19.8
 2003/08/01, 1:00,28,50,27.1,19.8
 2003/08/01, 1:15,27.8,50,27.1,19.8
 2003/08/01, 1:30,27.7,50,27.3,18
 2003/08/01, 1:45,27.4,50,27.3,18.1
 2003/08/01, 2:00,27.4,51,27.3,18.1
 2003/08/01, 2:15,27.3,51,27.3,18.2
 2003/08/01, 2:30,27.3,51,27.3,18.2
 2003/08/01, 2:45,27.2,51,27.4,18.3
 2003/08/01, 3:00,27.1,52,27.4,18.3
 2003/08/01, 3:15,27,52,27.3,18.4
 2003/08/01, 3:30,27,52,27.3,18.4
 2003/08/01, 3:45,27,52,27.3,18.5
 2003/08/01, 4:00,26.9,53,27.3,18.6
 2003/08/01, 4:15,27,53,27.3,18.6
 2003/08/01, 4:30,26.9,53,27.3,18.7
 2003/08/01, 4:45,27,53,27.3,18.7
 2003/08/01, 5:00,27,53,27.3,18.8
 2003/08/01, 5:15,27.2,53,27.3,18.9
 2003/08/01, 5:30,27.3,53,27.1,18.9
 2003/08/01, 5:45,27.5,52,26.9,19
 2003/08/01, 6:00,27.7,52,26.7,19
 2003/08/01, 6:15,27.8,51,26.5,19.1
 2003/08/01, 6:30,28,51,26.7,19.2
 2003/08/01, 6:45,28.6,50,27.2,19.2
 2003/08/01, 7:00,28.2,50,27.5,18.2
 2003/08/01, 7:15,28.7,50,27.7,18.3
 2003/08/01, 7:30,29.1,51,27.9,18.4
 2003/08/01, 7:45,29.3,49,28.1,16.7
 2003/08/01, 8:00,28.9,50,28.1,16.2
 2003/08/01, 8:15,28.9,50,28.1,16.2
 2003/08/01, 8:30,29.1,50,28.2,16.3
 2003/08/01, 8:45,29,50,28.2,16.4
 2003/08/01, 9:00,29,50,28.2,16.5
 2003/08/01, 9:15,29.1,50,28.2,16.5
 2003/08/01, 9:30,29,50,28.2,16.6
 2003/08/01, 9:45,29,50,28.2,16.7
 2003/08/01,10:00,29,51,28.2,16.8
 2003/08/01,10:15,29,51,28.2,16.9
 2003/08/01,10:30,29,51,28.3,17
 2003/08/01,10:45,29,51,28.3,17
 2003/08/01,11:00,29,51,28.3,17.1
 2003/08/01,11:15,29,51,28.3,17.2
 2003/08/01,11:30,29,51,28.4,17.3
 2003/08/01,11:45,29,52,28.3,17.4
 2003/08/01,12:00,29,52,28.3,17.4
 2003/08/01,12:15,29,51,28.4,17.5
 2003/08/01,12:30,29,51,28.4,17.6
 2003/08/01,12:45,29,51,28.5,17.7
 2003/08/01,13:00,29,50,28.5,17.7
 2003/08/01,13:15,29,50,28.5,17.8
 2003/08/01,13:30,29,49,28.6,17.9
 2003/08/01,13:45,29,49,28.6,17.9
 2003/08/01,14:00,29,49,28.6,18
 2003/08/01,14:15,29,49,28.7,18.1
 2003/08/01,14:30,29,49,28.7,18.2
 2003/08/01,14:45,29,49,28.8,18.2
 2003/08/01,15:00,29,48,28.9,18.3
 2003/08/01,15:15,29,48,28.9,18.4
 2003/08/01,15:30,29.1,48,29,18.4
 2003/08/01,15:45,29.1,49,29,18.5
 2003/08/01,16:00,29.1,49,29.2,18.6
 2003/08/01,16:15,29.1,49,29.4,18.6
 2003/08/01,16:30,29.1,49,29.6,18.7
 2003/08/01,16:45,29.1,49,29.7,18.7
 2003/08/01,17:00,29.1,49,29.8,18.8
 2003/08/01,17:15,29.1,48,29.7,18.9
 2003/08/01,17:30,29.1,49,29.8,18.9
 2003/08/01,17:45,29.1,49,29.6,19
 2003/08/01,18:00,29.1,50,29.6,19
 2003/08/01,18:15,29.1,51,29.4,19.1
 2003/08/01,18:30,29.1,52,29.2,19.2
 2003/08/01,18:45,29.1,53,29.1,19.2
 2003/08/01,19:00,29.1,53,29,19.3
 2003/08/01,19:15,29.1,53,28.9,19.3
 2003/08/01,19:30,29,53,28.8,19.4
 2003/08/01,19:45,29,53,28.8,19.4
 2003/08/01,20:00,29,53,28.8,16.6
 2003/08/01,20:15,29,53,28.8,16.7
 2003/08/01,20:30,29,54,28.8,16.7
 2003/08/01,20:45,29,53,28.7,16.8
 2003/08/01,21:00,29,53,28.8,16.9
 2003/08/01,21:15,29,53,28.8,17
 2003/08/01,21:30,29,54,28.7,17.1
 2003/08/01,21:45,29,54,28.7,17.1
 2003/08/01,22:00,29,54,28.7,17.2
 2003/08/01,22:15,29,54,28.7,17.3
 2003/08/01,22:30,29.1,54,28.7,17.3
 2003/08/01,22:45,29.1,54,28.7,17.4
 2003/08/01,23:00,29.1,56,28.7,17.5
 2003/08/01,23:15,29.3,57,28.7,17.6
 2003/08/01,23:30,29.4,56,28.7,17.4
 2003/08/01,23:45,29.4,55,28.7,17.4
 2003/08/02, 0:00,29.3,56,28.7,17.4
 2003/08/02, 0:15,29,57,28.7,17.5
 2003/08/02, 0:30,29,57,28.7,17.6
 2003/08/02, 0:45,28.8,58,28.7,17.7
 2003/08/02, 1:00,28.9,58,28.7,17.7
 2003/08/02, 1:15,28.8,58,28.8,17.8
 2003/08/02, 1:30,28.9,58,28.8,17.8
 2003/08/02, 1:45,28.9,58,28.7,17.9
 2003/08/02, 2:00,29.1,57,28.6,18
 2003/08/02, 2:15,29.1,57,28.5,18
 2003/08/02, 2:30,29,57,28.4,18.1
 2003/08/02, 2:45,29,56,28.3,18.1
 2003/08/02, 3:00,29,57,28.3,18.2
 2003/08/02, 3:15,29.1,56,28.3,18.3
 2003/08/02, 3:30,28.1,51,28.4,18.3
 2003/08/02, 3:45,27.8,49,28.5,18.4
 2003/08/02, 4:00,27.5,46,28.5,18.4
 2003/08/02, 4:15,27.3,45,28.5,18.5
 2003/08/02, 4:30,27.1,43,28.5,18.6
 2003/08/02, 4:45,27.1,46,28.5,17.8
 2003/08/02, 5:00,27,47,28.5,17.8
 2003/08/02, 5:15,27.1,46,28.5,17.9
 2003/08/02, 5:30,27,47,28.5,17.9
 2003/08/02, 5:45,27.1,46,28.5,18
 2003/08/02, 6:00,27.1,49,28.5,18
 2003/08/02, 6:15,27,46,28.5,18.1
 2003/08/02, 6:30,26.8,45,28.5,18
 2003/08/02, 6:45,26.9,44,28.5,18
 2003/08/02, 7:00,27.1,44,28.5,18.1
 2003/08/02, 7:15,27.1,46,28.6,18.1
 2003/08/02, 7:30,27.2,43,28.6,18.1
 2003/08/02, 7:45,27.1,41,28.6,18.2
 2003/08/02, 8:00,27.1,41,28.6,18.2
 2003/08/02, 8:15,27.3,43,28.5,18.3
 2003/08/02, 8:30,27,42,28.5,18.3
 2003/08/02, 8:45,27.1,42,28.6,18.4
 2003/08/02, 9:00,27,41,28.7,18.4
 2003/08/02, 9:15,26.7,40,28.7,18.5
 2003/08/02, 9:30,26.6,39,28.7,17.5
 2003/08/02, 9:45,26.6,39,28.7,17.5
 2003/08/02,10:00,26.5,39,28.7,17.6
 2003/08/02,10:15,26.5,39,28.7,17.7
 2003/08/02,10:30,27.4,39,28.7,17.7
 2003/08/02,10:45,28,40,28.7,17.6
 2003/08/02,11:00,28.2,41,28.7,17.6
 2003/08/02,11:15,28.5,42,28.8,17.7
 2003/08/02,11:30,28.6,43,28.7,17.7
 2003/08/02,11:45,28.8,44,28.8,17.8
 2003/08/02,12:00,28.9,45,28.8,17.9
 2003/08/02,12:15,28.9,45,28.8,17.9
 2003/08/02,12:30,29,45,28.8,18
 2003/08/02,12:45,29.1,46,28.8,18.1
 2003/08/02,13:00,29.2,46,28.9,18.1
 2003/08/02,13:15,29.2,47,28.9,18.2
 2003/08/02,13:30,29.3,47,28.9,18.2
 2003/08/02,13:45,29.3,47,29,18.3
 2003/08/02,14:00,29.4,47,28.9,18.4
 2003/08/02,14:15,29.4,48,29,18.4
 2003/08/02,14:30,29.4,48,29,18.4
 2003/08/02,14:45,29.4,48,29,18.5
 2003/08/02,15:00,29.5,48,29.1,18.5
 2003/08/02,15:15,28.1,44,29.1,18.6
 2003/08/02,15:30,27.6,43,29.1,18.6
 2003/08/02,15:45,27.1,42,29.2,17.8
 2003/08/02,16:00,27.5,42,29.4,17.9
 2003/08/02,16:15,27.7,41,29.8,17.9
 2003/08/02,16:30,27.5,43,30,18
 2003/08/02,16:45,27.2,43,30.2,18
 2003/08/02,17:00,27,44,30.5,18.1
 2003/08/02,17:15,27,44,30.5,18.2
 2003/08/02,17:30,26.8,44,30.5,18.2
 2003/08/02,17:45,26.7,43,30.4,18.3
 2003/08/02,18:00,26.4,43,30.3,18.4
 2003/08/02,18:15,26.5,44,30.2,18.4
 2003/08/02,18:30,26.9,43,30,18.5
 2003/08/02,18:45,26.9,43,29.9,18.5
 2003/08/02,19:00,27,43,29.7,18.6
 2003/08/02,19:15,27,43,29.6,18.7
 2003/08/02,19:30,27,44,29.6,18.7
 2003/08/02,19:45,27,43,29.5,18.8
 2003/08/02,20:00,27,42,29.4,18.9
 2003/08/02,20:15,26.9,41,29.5,18.9
 2003/08/02,20:30,26.9,42,29.4,19
 2003/08/02,20:45,26.8,42,29.4,19
 2003/08/02,21:00,26.7,42,29.4,19.1
 2003/08/02,21:15,26.7,42,29.3,19.2
 2003/08/02,21:30,26.6,41,29.3,19.2
 2003/08/02,21:45,26.6,41,29.3,19.2
 2003/08/02,22:00,26.6,44,29.3,19.3
 2003/08/02,22:15,26.7,43,29.3,19.4
 2003/08/02,22:30,26.6,41,29.3,19.4
 2003/08/02,22:45,26.7,43,29.2,19.5
 2003/08/02,23:00,26.8,44,29.3,19.5
 2003/08/02,23:15,26.8,43,29.3,19.6
 2003/08/02,23:30,26.8,44,29.2,19.6
 2003/08/02,23:45,26.9,45,29.2,19.7
 2003/08/03, 0:00,26.8,44,29.2,19.7
 2003/08/03, 0:15,26.9,44,29.2,19.8
 2003/08/03, 0:30,26.9,46,29.2,19.8
 2003/08/03, 0:45,26.9,44,29.2,19.9
 2003/08/03, 1:00,26.9,46,29.2,19.9
 2003/08/03, 1:15,26.9,46,29.2,20
 2003/08/03, 1:30,27,45,29.2,20
 2003/08/03, 1:45,27,44,29.2,20.1
 2003/08/03, 2:00,27.1,46,29.2,20.1
 2003/08/03, 2:15,27,44,29.2,20.2
 2003/08/03, 2:30,27,46,29.2,20.2
 2003/08/03, 2:45,27,44,29.2,19.3
 2003/08/03, 3:00,27.1,45,29.2,19.3
 2003/08/03, 3:15,26.9,44,29.2,19.3
 2003/08/03, 3:30,27.1,47,29.2,19.3
 2003/08/03, 3:45,27,45,29.1,19.4
 2003/08/03, 4:00,27,48,29.2,19.4
 2003/08/03, 4:15,27,46,29.2,19.5
 2003/08/03, 4:30,27.1,48,29.2,19.5
 2003/08/03, 4:45,27.1,50,29.2,19.6
 2003/08/03, 5:00,27,46,29.2,19.6
 2003/08/03, 5:15,27.1,49,29.2,19.7
 2003/08/03, 5:30,27,49,29.2,19.7
 2003/08/03, 5:45,27.1,48,29.2,19.8
 2003/08/03, 6:00,27.2,49,29.2,19.8
 2003/08/03, 6:15,27.5,49,29.2,19.9
 2003/08/03, 6:30,28,49,29.2,19.9
 2003/08/03, 6:45,28.2,50,29.2,19.9
 2003/08/03, 7:00,28.3,50,29.2,20
 2003/08/03, 7:15,28.6,50,29.2,20.1
 2003/08/03, 7:30,28.9,50,29.2,20.1
 2003/08/03, 7:45,29.2,49,29.2,20.2
 2003/08/03, 8:00,29.4,49,29.2,20.2
 2003/08/03, 8:15,29.6,49,29.3,20.3
 2003/08/03, 8:30,29.8,49,29.3,20.3
 2003/08/03, 8:45,29.9,50,29.3,19.7
 2003/08/03, 9:00,30,52,29.4,19.7
 2003/08/03, 9:15,30.2,54,29.5,19.8
 2003/08/03, 9:30,30.4,55,29.6,19.8
 2003/08/03, 9:45,30.2,53,29.5,19.8
 2003/08/03,10:00,30.2,53,29.5,19.9
 2003/08/03,10:15,30.2,53,29.5,19.9
 2003/08/03,10:30,30.3,53,29.5,20
 2003/08/03,10:45,30.3,53,29.6,20
 2003/08/03,11:00,30.3,53,29.6,18.5
 2003/08/03,11:15,30.5,54,29.7,18.5
 2003/08/03,11:30,30.3,54,29.8,18.6
 2003/08/03,11:45,30.3,54,29.8,18.6
 2003/08/03,12:00,30.3,54,29.9,18.7
 2003/08/03,12:15,30.4,55,29.9,18.5
 2003/08/03,12:30,30.5,55,30,17.3
 2003/08/03,12:45,30.5,54,30,17.3
 2003/08/03,13:00,30.5,54,30.1,17.4
 2003/08/03,13:15,30.6,55,30.1,18
 2003/08/03,13:30,30.7,53,30.2,18
 2003/08/03,13:45,30.6,53,30.3,18.1
 2003/08/03,14:00,30.6,53,30.3,18.1
 2003/08/03,14:15,30.6,52,30.3,18.2
 2003/08/03,14:30,30.7,51,30.4,18.2
 2003/08/03,14:45,30.7,49,30.4,18.3
 2003/08/03,15:00,30.7,50,30.5,18.4
 2003/08/03,15:15,30.6,53,30.5,18.4
 2003/08/03,15:30,30.7,54,30.5,18.5
 2003/08/03,15:45,30.6,54,30.6,18.5
 2003/08/03,16:00,30.7,52,30.7,18.6
 2003/08/03,16:15,30.7,52,30.9,18.8
 2003/08/03,16:30,30.7,52,31.2,18.8
 2003/08/03,16:45,30.7,52,31.6,18.9
 2003/08/03,17:00,30.7,52,31.6,18.9
 2003/08/03,17:15,30.7,52,31.4,19
 2003/08/03,17:30,30.7,51,31.5,19
 2003/08/03,17:45,30.7,52,31.3,19.1
 2003/08/03,18:00,30.7,51,31.1,19.1
 2003/08/03,18:15,30.7,51,31.1,19.2
 2003/08/03,18:30,30.7,53,30.9,19.2
 2003/08/03,18:45,30.6,54,30.7,19.3
 2003/08/03,19:00,30.6,54,30.5,19.3
 2003/08/03,19:15,30.5,55,30.4,18.7
 2003/08/03,19:30,30.5,55,30.3,18.8
 2003/08/03,19:45,30.4,56,30.3,18.8
 2003/08/03,20:00,30.3,56,30.2,18.9
 2003/08/03,20:15,30.3,55,30.1,18.9
 2003/08/03,20:30,29.1,44,30.1,19
 2003/08/03,20:45,28,38,30.1,19.1
 2003/08/03,21:00,27.2,35,30.2,19.1
 2003/08/03,21:15,26.7,34,30.2,19.2
 2003/08/03,21:30,26.2,33,30.1,16.8
 2003/08/03,21:45,26.3,38,30.1,16.8
 2003/08/03,22:00,26.5,39,30,16.9
 2003/08/03,22:15,26.7,40,30,17
 2003/08/03,22:30,26.8,41,30,17.1
 2003/08/03,22:45,26.8,39,30,17.2
 2003/08/03,23:00,26.7,40,30,17.3
 2003/08/03,23:15,26.7,40,30,17.4
 2003/08/03,23:30,26.9,40,30,17.5
 2003/08/03,23:45,26.8,40,30,17.6
 2003/08/04, 0:00,26.8,39,30,17.6
 2003/08/04, 0:15,26.9,39,29.9,17.7
 2003/08/04, 0:30,26.7,39,29.9,17.8
 2003/08/04, 0:45,26.7,39,29.9,17.9
 2003/08/04, 1:00,26.7,38,29.9,19
 2003/08/04, 1:15,26.7,39,29.9,18.1
 2003/08/04, 1:30,26.6,39,29.9,18.2
 2003/08/04, 1:45,26.5,38,29.9,18.2
 2003/08/04, 2:00,26.6,39,29.9,18.3
 2003/08/04, 2:15,26.6,39,29.9,18.3
 2003/08/04, 2:30,26.7,40,29.9,18.4
 2003/08/04, 2:45,26.6,39,29.9,18.5
 2003/08/04, 3:00,26.7,39,29.9,18.6
 2003/08/04, 3:15,26.7,39,29.9,18.6
 2003/08/04, 3:30,26.6,39,29.8,18.7
 2003/08/04, 3:45,26.7,40,29.8,18.8
 2003/08/04, 4:00,26.6,39,29.9,18.8
 2003/08/04, 4:15,27.2,41,29.8,18.9
 2003/08/04, 4:30,27.6,42,29.8,19
 2003/08/04, 4:45,27.9,43,29.8,19
 2003/08/04, 5:00,28.1,44,29.8,19.1
 2003/08/04, 5:15,28.3,44,29.8,19.2
 2003/08/04, 5:30,28.4,45,29.8,19.8
 2003/08/04, 5:45,28.5,46,29.8,19.9
 2003/08/04, 6:00,28.7,46,29.8,19.9
 2003/08/04, 6:15,28.9,49,29.8,20
 2003/08/04, 6:30,29.1,53,29.8,20
 2003/08/04, 6:45,29.3,54,29.8,20
 2003/08/04, 7:00,29.5,56,29.8,18.4
 2003/08/04, 7:15,29.7,58,29.8,17.6
 2003/08/04, 7:30,29.8,59,29.9,17
 2003/08/04, 7:45,29.9,59,29.8,17.4
 2003/08/04, 8:00,29.8,59,29.8,17.4
 2003/08/04, 8:15,29.8,59,29.8,17.5
 2003/08/04, 8:30,29.8,59,29.8,17.6
 2003/08/04, 8:45,29.9,58,29.9,17.7
 2003/08/04, 9:00,30,58,29.9,17.7
 2003/08/04, 9:15,30,58,29.9,17.8
 2003/08/04, 9:30,30,57,29.9,17.9
 2003/08/04, 9:45,30.1,58,29.9,17.9
 2003/08/04,10:00,30.1,58,30,18
 2003/08/04,10:15,30.2,58,30,18.1
 2003/08/04,10:30,30.2,57,30,18.2
 2003/08/04,10:45,30.2,57,30.1,18.2
 2003/08/04,11:00,30.2,57,30.1,18.3
 2003/08/04,11:15,30.3,57,30.1,18.4
 2003/08/04,11:30,30.3,57,30.1,18.5
 2003/08/04,11:45,30.3,56,30.1,18.5
 2003/08/04,12:00,30.3,56,30.2,18.6
 2003/08/04,12:15,30.3,57,30.2,18.7
 2003/08/04,12:30,30.3,56,30.3,18.7
 2003/08/04,12:45,30.4,56,30.3,18.8
 2003/08/04,13:00,30.4,56,30.4,18.9
 2003/08/04,13:15,30.4,56,30.3,18.9
 2003/08/04,13:30,30.4,56,30.4,19
 2003/08/04,13:45,30.4,55,30.4,19.1
 2003/08/04,14:00,30.4,55,30.5,19.1
 2003/08/04,14:15,30.4,54,30.5,19.2
 2003/08/04,14:30,30.5,54,30.5,19.2
 2003/08/04,14:45,30.4,53,30.5,19.3
 2003/08/04,15:00,30.5,53,30.6,19.4
 2003/08/04,15:15,30.5,53,30.6,19.4
 2003/08/04,15:30,30.5,54,30.7,19.5
 2003/08/04,15:45,30.5,54,30.8,19.5
 2003/08/04,16:00,30.5,54,30.9,19.6
 2003/08/04,16:15,30.5,55,31.3,19.6
 2003/08/04,16:30,30.5,55,31.5,19.7
 2003/08/04,16:45,30.6,55,31.6,19.7
 2003/08/04,17:00,30.6,55,31.7,19.8
 2003/08/04,17:15,30.6,55,31.6,19.8
 2003/08/04,17:30,30.6,56,31.6,19.9
 2003/08/04,17:45,30.6,56,31.4,19.9
 2003/08/04,18:00,30.6,56,31.1,20
 2003/08/04,18:15,30.6,57,31.1,20
 2003/08/04,18:30,30.6,58,31,20.1
 2003/08/04,18:45,30.6,58,30.9,20.1
 2003/08/04,19:00,30.6,59,30.7,20.2
 2003/08/04,19:15,30.6,58,30.6,20.2
 2003/08/04,19:30,30.6,58,30.6,20.3
 2003/08/04,19:45,30.6,58,30.5,20.3
 2003/08/04,20:00,30.6,58,30.5,20.4
 2003/08/04,20:15,30.6,58,30.5,20.4
 2003/08/04,20:30,30.6,58,30.5,20.5
 2003/08/04,20:45,30.6,58,30.5,20.6
 2003/08/04,21:00,30.5,58,30.4,20.6
 2003/08/04,21:15,30.5,58,30.4,20.6
 2003/08/04,21:30,30.5,58,30.3,20.7
 2003/08/04,21:45,30.3,55,30.3,20.7
 2003/08/04,22:00,29.7,47,30.3,20.8
 2003/08/04,22:15,29.3,44,30.4,20.8
 2003/08/04,22:30,29,43,30.3,20.9
 2003/08/04,22:45,28.9,44,30.4,18.7
 2003/08/04,23:00,28.7,43,30.3,18.8
 2003/08/04,23:15,28.6,43,30.3,18.8
 2003/08/04,23:30,28.3,43,30.3,18.1
 2003/08/04,23:45,28.3,43,30.2,17.5
 2003/08/05, 0:00,28.2,41,30.2,17.5
 2003/08/05, 0:15,28.1,40,30.2,17.6
 2003/08/05, 0:30,28.1,39,30.2,17.6
 2003/08/05, 0:45,27.9,39,30.1,17.7
 2003/08/05, 1:00,27.7,38,30.1,17.8
 2003/08/05, 1:15,27.5,38,30.1,17.8
 2003/08/05, 1:30,27.3,37,30.1,17.9
 2003/08/05, 1:45,27.2,36,30.2,17.9
 2003/08/05, 2:00,27.1,37,30.1,18
 2003/08/05, 2:15,27,36,30.2,18.1
 2003/08/05, 2:30,27,37,30.1,18.1
 2003/08/05, 2:45,27,37,30.1,18.2
 2003/08/05, 3:00,26.9,37,30.1,17.7
 2003/08/05, 3:15,26.8,37,30.1,17.7
 2003/08/05, 3:30,26.7,36,30.1,17.7
 2003/08/05, 3:45,26.8,37,30.1,17.8
 2003/08/05, 4:00,26.6,36,30.1,17.8
 2003/08/05, 4:15,26.6,36,30,17.9
 2003/08/05, 4:30,26.5,35,30,18
 2003/08/05, 4:45,26.5,36,30,18
 2003/08/05, 5:00,26.5,36,30,18.1
 2003/08/05, 5:15,26.4,36,30,18.1
 2003/08/05, 5:30,26.4,36,29.9,18.2
 2003/08/05, 5:45,26.3,36,29.9,18.3
 2003/08/05, 6:00,26.4,36,30,18.3
 2003/08/05, 6:15,27.5,38,29.9,18.4
 2003/08/05, 6:30,28,39,29.9,18.4
 2003/08/05, 6:45,28.3,41,30.1,18.5
 2003/08/05, 7:00,28.8,45,30.2,18.6
 2003/08/05, 7:15,29.2,46,30.2,18.1
 2003/08/05, 7:30,29.7,46,30.2,17
 2003/08/05, 7:45,30.5,47,30.1,17.3
 2003/08/05, 8:00,30.2,53,30.1,17.3
 2003/08/05, 8:15,30.2,54,30.1,17.4
 2003/08/05, 8:30,30.3,55,30.2,17.5
 2003/08/05, 8:45,30.4,55,30.3,17.5
 2003/08/05, 9:00,30.5,55,30.3,17.6
 2003/08/05, 9:15,30.5,55,30.3,17.7
 2003/08/05, 9:30,30.5,55,30.3,17.7
 2003/08/05, 9:45,30.5,55,30.3,17.8
 2003/08/05,10:00,30.5,55,30.3,17.9
 2003/08/05,10:15,30.6,55,30.4,17.9
 2003/08/05,10:30,30.6,55,30.4,18
 2003/08/05,10:45,30.6,55,30.4,18
 2003/08/05,11:00,30.7,55,30.5,18.1
 2003/08/05,11:15,30.6,55,30.5,18.2
 2003/08/05,11:30,30.7,55,30.5,18.2
 2003/08/05,11:45,30.7,55,30.5,18.3
 2003/08/05,12:00,30.7,55,30.5,18.4
 2003/08/05,12:15,30.7,55,30.6,18.4
 2003/08/05,12:30,30.7,54,30.6,18.5
 2003/08/05,12:45,30.7,54,30.6,18.5
 2003/08/05,13:00,30.8,54,30.7,18.6
 2003/08/05,13:15,30.8,54,30.7,18.7
 2003/08/05,13:30,30.7,53,30.7,18.7
 2003/08/05,13:45,30.8,54,30.7,18.8
 2003/08/05,14:00,30.8,54,30.8,18.8
 2003/08/05,14:15,30.9,53,30.9,18.9
 2003/08/05,14:30,30.8,54,30.9,18.9
 2003/08/05,14:45,30.9,54,31,19
 2003/08/05,15:00,31,54,31,19.1
 2003/08/05,15:15,30.9,54,30.9,19.1
 2003/08/05,15:30,30.9,54,30.9,19.2
 2003/08/05,15:45,30.9,54,30.9,19.2
 2003/08/05,16:00,30.9,55,30.9,19.3
 2003/08/05,16:15,30.9,55,31,19.3
 2003/08/05,16:30,31,55,31.1,19.4
 2003/08/05,16:45,31,56,31.3,19.4
 2003/08/05,17:00,31,56,31.4,19.5
 2003/08/05,17:15,31,57,31.4,19.5
 2003/08/05,17:30,31,57,31.3,19.6
 2003/08/05,17:45,31,57,31.3,19.6
 2003/08/05,18:00,31,57,31.1,19.7
 2003/08/05,18:15,31,58,31.1,19.7
 2003/08/05,18:30,31,58,31,19.8
 2003/08/05,18:45,31,58,31,19.8
 2003/08/05,19:00,31,58,30.9,19.9
 2003/08/05,19:15,31,57,30.8,19.9
 2003/08/05,19:30,31,57,30.8,19.9
 2003/08/05,19:45,31,56,30.7,20
 2003/08/05,20:00,31,56,30.7,20
 2003/08/05,20:15,31,56,30.7,20.1
 2003/08/05,20:30,30.9,56,30.7,20.1
 2003/08/05,20:45,30.9,56,30.6,17.6
 2003/08/05,21:00,30.9,55,30.6,17.6
 2003/08/05,21:15,30.9,55,30.5,17.7
 2003/08/05,21:30,30.9,55,30.5,17.7
 2003/08/05,21:45,30.9,55,30.5,17.8
 2003/08/05,22:00,30.5,50,30.5,17.9
 2003/08/05,22:15,29.3,43,30.6,17.9
 2003/08/05,22:30,28.9,40,30.5,18
 2003/08/05,22:45,28.2,34,30.5,18
 2003/08/05,23:00,27.6,32,30.5,18.1
 2003/08/05,23:15,27.1,31,30.4,18.2
 2003/08/05,23:30,26.6,30,30.4,17.3
 2003/08/05,23:45,26.2,29,30.3,17.3
 2003/08/06, 0:00,25.8,29,30.4,17.3
 2003/08/06, 0:15,25.7,29,30.4,17.4
 2003/08/06, 0:30,26.1,34,30.4,17.5
 2003/08/06, 0:45,26.3,35,30.4,17.5
 2003/08/06, 1:00,26.4,36,30.3,17.6
 2003/08/06, 1:15,26.4,37,30.4,17.7
 2003/08/06, 1:30,26.3,37,30.3,17.8
 2003/08/06, 1:45,26.4,37,30.3,17.8
 2003/08/06, 2:00,26.3,36,30.3,17.9
 2003/08/06, 2:15,26.3,37,30.2,18
 2003/08/06, 2:30,26.3,36,30.2,18
 2003/08/06, 2:45,26.2,37,30.2,18.1
 2003/08/06, 3:00,26.2,37,30.2,18.2
 2003/08/06, 3:15,26.1,36,30.2,18.2
 2003/08/06, 3:30,26.2,37,30.2,18.3
 2003/08/06, 3:45,26.3,37,30.1,18.4
 2003/08/06, 4:00,26.4,38,30.1,18.4
 2003/08/06, 4:15,26.3,36,30.1,18.5
 2003/08/06, 4:30,27.3,39,30.1,18.6
 2003/08/06, 4:45,27.9,40,30.1,18.6
 2003/08/06, 5:00,28.2,41,30.1,18.7
 2003/08/06, 5:15,28.4,43,30.1,18.8
 2003/08/06, 5:30,28.6,43,30.2,18.8
 2003/08/06, 5:45,28.8,44,30.2,18.9
 2003/08/06, 6:00,29.1,44,30.2,18.9
 2003/08/06, 6:15,29.4,45,30.3,19
 2003/08/06, 6:30,29.7,45,30.3,19
 2003/08/06, 6:45,30,46,30.4,19.1
 2003/08/06, 7:00,30.3,53,30.5,18.8
 2003/08/06, 7:15,30.6,53,30.5,18.8
 2003/08/06, 7:30,30.7,53,30.5,17.1
 2003/08/06, 7:45,30.7,55,30.5,17.2
 2003/08/06, 8:00,30.5,55,30.5,17.5
 2003/08/06, 8:15,30.5,56,30.5,17.5
 2003/08/06, 8:30,30.5,56,30.5,17.6
 2003/08/06, 8:45,30.6,56,30.6,17.6
 2003/08/06, 9:00,30.7,55,30.6,17.7
 2003/08/06, 9:15,30.7,54,30.6,17.8
 2003/08/06, 9:30,30.8,53,30.6,17.8
 2003/08/06, 9:45,30.8,53,30.6,17.9
 2003/08/06,10:00,30.8,53,30.5,17.9
 2003/08/06,10:15,30.7,52,30.5,18
 2003/08/06,10:30,30.8,52,30.5,18.1
 2003/08/06,10:45,30.8,52,30.6,18.1
 2003/08/06,11:00,30.8,52,30.5,18.2
 2003/08/06,11:15,30.7,52,30.6,18.2
 2003/08/06,11:30,30.8,52,30.7,18.3
 2003/08/06,11:45,30.8,52,30.7,18.4
 2003/08/06,12:00,30.8,51,30.7,18.4
 2003/08/06,12:15,30.8,51,30.7,18.5
 2003/08/06,12:30,30.8,51,30.7,18.6
 2003/08/06,12:45,30.8,51,30.8,18.6
 2003/08/06,13:00,30.8,51,30.8,18.7
 2003/08/06,13:15,30.8,52,30.9,18.7
 2003/08/06,13:30,30.9,52,30.9,18.8
 2003/08/06,13:45,30.9,52,30.9,18.9
 2003/08/06,14:00,30.9,51,30.9,18.9
 2003/08/06,14:15,30.9,50,30.9,19
 2003/08/06,14:30,30.9,50,30.9,19
 2003/08/06,14:45,30.9,50,30.9,19.1
 2003/08/06,15:00,31,49,31,19.1
 2003/08/06,15:15,31,49,30.9,19.2
 2003/08/06,15:30,30.9,49,31,19.2
 2003/08/06,15:45,31,48,31.1,19.3
 2003/08/06,16:00,31,48,31.2,19.3
 2003/08/06,16:15,31,48,31.6,19.4
 2003/08/06,16:30,31,49,32,19.4
 2003/08/06,16:45,31,49,32.1,19.5
 2003/08/06,17:00,31,48,32.2,19.5
 2003/08/06,17:15,31,48,32.2,19.6
 2003/08/06,17:30,31,49,31.9,19.6
 2003/08/06,17:45,31,49,31.7,19.7
 2003/08/06,18:00,31,49,31.7,19.7
 2003/08/06,18:15,31,50,31.6,19.8
 2003/08/06,18:30,31,51,31.4,19.8
 2003/08/06,18:45,31,51,31.3,19.9
 2003/08/06,19:00,31,52,31.2,19.9
 2003/08/06,19:15,31,52,31.1,20
 2003/08/06,19:30,31,53,31.1,20
 2003/08/06,19:45,31,54,31.1,20
 2003/08/06,20:00,31,54,31.1,20.1
 2003/08/06,20:15,31,55,31,20.2
 2003/08/06,20:30,31,55,31,20.2
 2003/08/06,20:45,31,55,30.9,20.3
 2003/08/06,21:00,30.8,51,30.8,20.3
 2003/08/06,21:15,29.5,40,30.8,20.4
 2003/08/06,21:30,28.3,35,30.8,20.4
 2003/08/06,21:45,28.2,38,30.8,20.4
 2003/08/06,22:00,28.7,40,30.8,20.5
 2003/08/06,22:15,28.5,40,30.8,20.5
 2003/08/06,22:30,28.6,41,30.7,20.6
 2003/08/06,22:45,28.5,40,30.6,20.6
 2003/08/06,23:00,28.5,42,30.6,20.7
 2003/08/06,23:15,28.7,41,30.6,20.7
 2003/08/06,23:30,28.6,39,30.6,20.8
 2003/08/06,23:45,28.4,38,30.6,20.8
 2003/08/07, 0:00,28.2,38,30.6,20.8
 2003/08/07, 0:15,28.2,37,30.6,20.9
 2003/08/07, 0:30,28,36,30.6,20.9
 2003/08/07, 0:45,28,35,30.6,19.2
 2003/08/07, 1:00,27.8,35,30.6,19.2
 2003/08/07, 1:15,27.8,35,30.6,19.2
 2003/08/07, 1:30,27.7,35,30.6,19.3
 2003/08/07, 1:45,27.5,34,30.6,19.7
 2003/08/07, 2:00,27.5,34,30.5,18.9
 2003/08/07, 2:15,27.4,34,30.5,18.9
 2003/08/07, 2:30,27.4,34,30.6,18.9
 2003/08/07, 2:45,27.2,34,30.5,19
 2003/08/07, 3:00,27.2,35,30.5,19
 2003/08/07, 3:15,27,34,30.5,19.1
 2003/08/07, 3:30,26.9,34,30.5,19.1
 2003/08/07, 3:45,26.9,35,30.5,19.2
 2003/08/07, 4:00,26.9,35,30.5,19.2
 2003/08/07, 4:15,26.9,36,30.5,19.3
 2003/08/07, 4:30,26.8,36,30.5,19.3
 2003/08/07, 4:45,26.8,36,30.5,19.4
 2003/08/07, 5:00,26.7,35,30.5,19.4
 2003/08/07, 5:15,26.7,35,30.5,19.5
 2003/08/07, 5:30,26.7,35,30.5,19.5
 2003/08/07, 5:45,26.7,35,30.5,19.6
 2003/08/07, 6:00,26.7,36,30.5,19.6
 2003/08/07, 6:15,28,37,30.5,19.7
 2003/08/07, 6:30,28.5,38,30.5,19.7
 2003/08/07, 6:45,29.1,40,30.6,19.8
 2003/08/07, 7:00,29.6,43,30.5,19.8
 2003/08/07, 7:15,29.6,44,30.5,19.9
 2003/08/07, 7:30,29.8,45,30.5,19
 2003/08/07, 7:45,29.9,46,30.5,17.5
 2003/08/07, 8:00,30,50,30.5,17.5
 2003/08/07, 8:15,30,51,30.4,17.6
 2003/08/07, 8:30,30.1,51,30.5,17.6
 2003/08/07, 8:45,30.2,51,30.4,17.7
 2003/08/07, 9:00,30.2,52,30.4,17.7
 2003/08/07, 9:15,30.3,52,30.4,17.8
 2003/08/07, 9:30,30.4,52,30.5,17.9
 2003/08/07, 9:45,30.5,53,30.5,17.9
 2003/08/07,10:00,30.5,53,30.5,18
 2003/08/07,10:15,30.6,52,30.6,18.1
 2003/08/07,10:30,30.6,53,30.6,18.1
 2003/08/07,10:45,30.7,52,30.6,18.2
 2003/08/07,11:00,30.7,53,30.7,18.2
 2003/08/07,11:15,30.7,53,30.7,18.2
 2003/08/07,11:30,30.7,53,30.7,18.3
 2003/08/07,11:45,30.7,53,30.8,18.5
 2003/08/07,12:00,30.8,53,30.8,18.6
 2003/08/07,12:15,30.9,53,30.8,18.6
 2003/08/07,12:30,30.9,53,30.8,18.7
 2003/08/07,12:45,30.8,52,30.8,18.7
 2003/08/07,13:00,30.9,52,30.8,18.9
 2003/08/07,13:15,30.9,53,30.8,18.9
 2003/08/07,13:30,30.9,53,30.8,18.9
 2003/08/07,13:45,30.9,53,30.8,19
 2003/08/07,14:00,30.9,53,30.8,19
 2003/08/07,14:15,31,54,30.8,19.1
 2003/08/07,14:30,30.9,54,30.8,19.1
 2003/08/07,14:45,31,54,30.8,19.2
 2003/08/07,15:00,31,54,30.8,19.2
 2003/08/07,15:15,30.9,54,30.7,19.8
 2003/08/07,15:30,31,53,30.7,18.9
 2003/08/07,15:45,30.9,53,30.6,18.9
 2003/08/07,16:00,31,53,30.5,19
 2003/08/07,16:15,30.9,53,30.5,19
 2003/08/07,16:30,31,53,30.5,19.1
 2003/08/07,16:45,30.9,53,30.5,19.2
 2003/08/07,17:00,30.9,53,30.4,19.2
 2003/08/07,17:15,30.9,52,30.4,18.8
 2003/08/07,17:30,30.9,52,30.4,18.8
 2003/08/07,17:45,30.9,52,30.4,18.9
 2003/08/07,18:00,30.9,52,30.4,18.9
 2003/08/07,18:15,30.9,51,30.4,18.9
 2003/08/07,18:30,30.9,51,30.4,19
 2003/08/07,18:45,30.9,53,30.3,19
 2003/08/07,19:00,30.9,54,30.3,19.1
 2003/08/07,19:15,30.8,54,30.2,19.2
 2003/08/07,19:30,30.9,54,30.2,19.2
 2003/08/07,19:45,30.9,55,30.1,19.3
 2003/08/07,20:00,30.8,55,30.1,19.3
 2003/08/07,20:15,30.8,56,30.1,18.8
 2003/08/07,20:30,30.8,56,30.1,18.8
 2003/08/07,20:45,30.8,56,30,18.8